Weather in Chernogubtsevo

Russia / Smolensk Oblast     55°33′10″N   34°56′37″E
temp.,
°C
wind,
m/s
gust,
m/s
humid.,
%
clouds,
%
prec.,
mm/h
press.,
hPa
HPBL,
m
27 october, wed
wed2700:00+3sw61371100 0.0 1019410
03:00+3sw61373100 0.0 1017380
06:00+3sw61474100 0.0 1015403
09:00+3sw61474100 0.0 1014465
12:00+4wsw71276100 0.0 1014643
15:00+5wsw61291100 0.1 1015637
18:00+6wsw51289100 0.1 1016469
21:00+6wsw51184100 0.2 1015423
28 october, thu
thu2800:00+3sw5119397 0.0 1015234
03:00+4ssw61394100 0.3 1012404
06:00+6sw71594100 2.4 1009680
09:00+8w71595100 3.3 1009693
12:00+10w6119199 0.1 1010641
15:00+9nw81175100 0.4 10131119
18:00+7nw61189100 0.0 1017751
21:00+6n6977100 0.3 1022954
29 october, fri
fri2900:00+5nne3782100 0.0 1024417
03:00+6ene2272100 0.0 102639
06:00+6s117291 0.0 102810
09:00+5ssw3479100 0.0 1029117
12:00+7ssw566798 0.0 1030679
15:00+8sw57688 0.0 1029614
18:00+5ssw49865 0.0 1029181
21:00+4ssw4990100 0.0 1030181
30 october, sat
sat3000:00+4ssw41092100 0.0 1030204
03:00+3ssw4109380 0.0 1030211
06:00+2ssw4109396 0.0 1030203
09:00+3ssw4109140 0.0 1030235
12:00+7ssw697345 0.0 1029399
15:00+9ssw510725 0.0 1029536
18:00+5s5128897 0.0 1028272
21:00+5ssw51390100 0.0 1028330
31 october, sun
sun3100:00+4ssw6149271 0.0 1028350
03:00+4ssw513925 0.0 1027322
06:00+4ssw513925 0.0 1026286
09:00+4ssw513915 0.0 1027333
12:00+8ssw712775 0.0 1026478
15:00+10ssw612745 0.0 1025609
18:00+6s512855 0.0 1025309
21:00+5s6138269 0.0 1024328